Content
SEND FEEDBACK

Daily
Averages
Monthly
Summary
Mexico

PUEBLA - LOMAS DEL MÁRMOL, PUEBLA


Home > North America > Mexico > Puebla
Elevation: 6916 feet     Latitude: 18 58N     Longitude: 098 10W

WEATHER
 
SELECT A DAY
Number of Records: 124,871;   Date Range: 1/1/95 - 11/26/14
 
SHARE

PRINT THIS DATA

[ ← Previous Day ]
WEATHER ALMANAC - APRIL 23, 2013
[ Next Day → ]
[ °C ]   °F
Weather ElementAverageHighLow
Temperature69.6 °F84 °F (3:50 pm)51.8 °F (7:37 am)
Dewpoint44.9 °F51 °F (3:45 am)37.4 °F (6:40 pm)
Humidity41.8 %82 % (7:53 am)19 % (6:50 pm)
Barometer30.09 in30.36 in (10:40 pm)29.50 in (6:50 pm)
Wind Speed6.7 mph17.3 mph (5:41 pm)
Weather ElementAverage
Visibility4.8 mi
Wind DirectionS (177.4 °)

Weather ElementTotal
Precipitation---
Cooling Degree Days2.9 (Base 65)
Growing Degree Days17.9 (Base 50)
Averaged from 25 records on April 23, 2013
WEATHER CONDITIONS BREAKOUT
WIND DIRECTION BREAKOUT
WEATHER BY HOUR - APRIL 23, 2013
[ °C ]   °F
Local TimeTemperatureDewpointHumidityBarometerVisibilityWind DirectionWind SpeedGust SpeedPrecipitationEventsConditions
3:45 AM64.0 °F51.0 °F53 %29.69 in3.0 miCalmScattered Clouds
5:48 AM53.6 °F46.4 °F77 %30.28 in5.0 miWest (280°)5.8 mphPartly Cloudy
6:45 AM59.0 °F51.0 °F66 %29.73 in3.0 miCalmHaze
7:37 AM51.8 °F44.6 °F76 %30.29 in5.0 miCalmScattered Clouds
7:53 AM51.8 °F46.4 °F82 %30.31 in5.0 miWNW (290°)2.3 mphScattered Clouds
8:55 AM59.0 °F46.4 °F63 %30.32 in5.0 miNW (320°)4.6 mphPartly Cloudy
9:46 AM66.2 °F48.2 °F52 %30.33 in5.0 miNorth (350°)5.8 mphClear
9:50 AM69.0 °F49.0 °F37 %29.55 in3.0 miEast (90°)2.2 mphHaze
10:49 AM68.0 °F50.0 °F52 %30.33 in5.0 miSSE (150°)6.9 mphClear
11:48 AM71.6 °F48.2 °F43 %30.32 in5.0 miESE (110°)9.2 mphClear
12:50 PM80.0 °F51.0 °F26 %29.72 in3.0 miSSW (210°)2.2 mphHaze
12:50 PM75.2 °F46.4 °F36 %30.30 in5.0 miSE (140°)12.7 mphClear
1:53 PM77.0 °F44.6 °F32 %30.27 in6.0 miWSW (240°)8.1 mphScattered Clouds
2:40 PM77.0 °F42.8 °F29 %30.24 in6.0 miSouth (180°)15.0 mphMostly Cloudy
3:40 PM80.6 °F41.0 °F24 %30.20 in6.0 miSSW (200°)9.2 mphMostly Cloudy
3:50 PM84.0 °F51.0 °F22 %29.61 in3.0 miSSW (210°)4.5 mphHaze
4:41 PM78.8 °F39.2 °F24 %30.18 in6.0 miSouth (190°)16.1 mphScattered Clouds
5:41 PM77.0 °F39.2 °F26 %30.17 in6.0 miSouth (180°)17.3 mphScattered Clouds
6:40 PM77.0 °F37.4 °F24 %30.18 in6.0 miSSW (200°)10.4 mphMostly Cloudy
6:50 PM80.0 °F45.0 °F19 %29.50 in3.0 miSouth (180°)2.2 mphHaze
7:43 PM71.6 °F39.2 °F31 %30.23 in6.0 miNE (50°)9.2 mphMostly Cloudy
8:45 PM66.2 °F39.2 °F37 %30.27 in6.0 miNNE (30°)10.4 mphMostly Cloudy
9:40 PM66.2 °F41.0 °F40 %30.30 in6.0 miNNW (330°)5.8 mphMostly Cloudy
9:50 PM72.0 °F40.0 °F21 %29.61 in3.0 miESE (110°)2.2 mphRainLight Drizzle
10:40 PM62.6 °F44.6 °F52 %30.36 in5.0 miNE (40°)5.8 mphRainRain
Hourly data recorded from MMPB, located miles away from Puebla - Lomas del Mármol, Puebla







STORIES FROM OUR PARTNERS